Brownwood, TX

3:12 PM CDT on August 28, 2016 (GMT -0500)
Brownwood Regional

Weather History for KBWD - February, 2014

Change the Weather History Date:

Friday, February 7, 2014

  Actual Average (KABI) Record (KABI)
Temperature  
Mean Temperature 26 °F 47 °F  
Max Temperature 32 °F 59 °F 86 °F (1932)
Min Temperature 19 °F 35 °F -2 °F (1895)
Degree Days  
Heating Degree Days 40 18  
Month to date heating degree days 130  
Since 1 July heating degree days 1799  
Cooling Degree Days 0 0  
Month to date cooling degree days 0  
Year to date cooling degree days 1  
Moisture  
Dew Point 20 °F    
Average Humidity 79    
Maximum Humidity 93    
Minimum Humidity 69    
Precipitation  
Precipitation 0.00 in 0.05 in 1.53 in (1931)
Month to date precipitation 0.30  
Year to date precipitation 1.32  
Sea Level Pressure  
Sea Level Pressure 30.25 in    
Wind  
Wind Speed 4 mph (ESE)    
Max Wind Speed 10 mph    
Max Gust Speed -    
Visibility 9 miles    
Events Snow    
T = Trace of Precipitation, MM = Missing Value Source: NWS Daily Summary

Daily Weather History Graph

Daily Weather History Graph

Search for Another Location

Airport or City:

Trip Planner

Search our weather history database for the weather conditions in past years. The results will help you decide how hot, cold, wet, or windy it might be!

Date:

Astronomy

Feb. 07, 2014 Rise Set
Actual Time 7:24 AM CST 6:15 PM CST
Civil Twilight 6:59 AM CST 6:40 PM CST
Nautical Twilight 6:30 AM CST 7:09 PM CST
Astronomical Twilight 6:01 AM CST 7:38 PM CST
Moon 12:31 PM CST (2/7) 1:39 AM CST (2/7)
Length of Visible Light 11h 41m
Length of Day
10h 50m
First Quarter, 59% of the Moon is Illuminated
Feb 7
First Quarter
Feb 14
Full
Feb 22
Last Quarter
Mar 1
New
Mar 8
First Quarter

Hourly Weather History & Observations

Time (CST) Temp. Windchill Dew Point Humidity Pressure Visibility Wind Dir Wind Speed Gust Speed Precip Events Conditions
12:15 AM 21.2 °F 14.9 °F 14.0 °F 74% 30.34 in 10.0 mi NNE 4.6 mph - N/A   Overcast
12:35 AM 21.2 °F 16.4 °F 14.0 °F 74% 30.36 in 10.0 mi NNE 3.5 mph - N/A   Overcast
12:55 AM 21.2 °F 14.9 °F 14.0 °F 74% 30.34 in 10.0 mi NNE 4.6 mph - N/A   Overcast
1:15 AM 21.2 °F - 14.0 °F 74% 30.34 in 10.0 mi Calm Calm - N/A   Overcast
1:35 AM 21.2 °F 16.4 °F 14.0 °F 74% 30.33 in 10.0 mi NE 3.5 mph - N/A   Overcast
1:55 AM 21.2 °F 14.9 °F 14.0 °F 74% 30.34 in 10.0 mi North 4.6 mph - N/A   Overcast
2:15 AM 21.2 °F 14.9 °F 14.0 °F 74% 30.33 in 10.0 mi NE 4.6 mph - N/A   Overcast
2:35 AM 21.2 °F 16.4 °F 14.0 °F 74% 30.32 in 10.0 mi North 3.5 mph - N/A   Overcast
2:55 AM 21.2 °F - 14.0 °F 74% 30.32 in 10.0 mi Calm Calm - N/A   Overcast
3:15 AM 21.2 °F 13.6 °F 14.0 °F 74% 30.31 in 10.0 mi North 5.8 mph - N/A   Overcast
3:35 AM 21.2 °F 14.9 °F 14.0 °F 74% 30.31 in 10.0 mi North 4.6 mph - N/A   Overcast
3:55 AM 21.2 °F 13.6 °F 14.0 °F 74% 30.29 in 9.0 mi ENE 5.8 mph - N/A Snow Light Snow
4:15 AM 19.4 °F 12.8 °F 15.8 °F 86% 30.29 in 7.0 mi ENE 4.6 mph - N/A Snow Light Snow
4:35 AM 19.4 °F 11.5 °F 15.8 °F 86% 30.28 in 10.0 mi ENE 5.8 mph - N/A   Overcast
4:55 AM 21.2 °F 16.4 °F 15.8 °F 80% 30.29 in 10.0 mi NE 3.5 mph - N/A   Overcast
5:15 AM 21.2 °F 13.6 °F 15.8 °F 80% 30.27 in 10.0 mi ENE 5.8 mph - N/A   Overcast
5:35 AM 21.2 °F 13.6 °F 15.8 °F 80% 30.27 in 10.0 mi NE 5.8 mph - N/A   Overcast
5:55 AM 21.2 °F 13.6 °F 15.8 °F 80% 30.27 in 10.0 mi NE 5.8 mph - N/A   Overcast
6:15 AM 21.2 °F 13.6 °F 15.8 °F 80% 30.27 in 10.0 mi East 5.8 mph - N/A   Overcast
6:35 AM 21.2 °F 16.4 °F 15.8 °F 80% 30.29 in 10.0 mi East 3.5 mph - N/A   Overcast
6:55 AM 21.2 °F 14.9 °F 15.8 °F 80% 30.29 in 10.0 mi NNE 4.6 mph - N/A   Overcast
7:15 AM 21.2 °F 14.9 °F 15.8 °F 80% 30.30 in 10.0 mi North 4.6 mph - N/A   Overcast
7:35 AM 21.2 °F 14.9 °F 15.8 °F 80% 30.29 in 10.0 mi NE 4.6 mph - N/A   Overcast
7:55 AM 21.2 °F 16.4 °F 15.8 °F 80% 30.31 in 10.0 mi NNW 3.5 mph - N/A   Overcast
8:15 AM 21.2 °F - 15.8 °F 80% 30.31 in 9.0 mi Calm Calm - N/A   Overcast
8:35 AM 23.0 °F - 17.6 °F 80% 30.31 in 8.0 mi Calm Calm - N/A   Overcast
8:55 AM 23.0 °F 15.8 °F 17.6 °F 80% 30.31 in 9.0 mi East 5.8 mph - N/A   Overcast
9:15 AM 23.0 °F 15.8 °F 17.6 °F 80% 30.32 in 10.0 mi East 5.8 mph - N/A   Overcast
9:35 AM 23.0 °F 18.4 °F 17.6 °F 80% 30.31 in 10.0 mi ESE 3.5 mph - N/A   Overcast
9:55 AM 23.0 °F 18.4 °F 17.6 °F 80% 30.32 in 10.0 mi East 3.5 mph - N/A   Overcast
10:15 AM 23.0 °F - 17.6 °F 80% 30.32 in 10.0 mi Calm Calm - N/A   Overcast
10:35 AM 24.8 °F - 17.6 °F 74% 30.31 in 10.0 mi Calm Calm - N/A   Overcast
10:55 AM 24.8 °F 17.9 °F 19.4 °F 80% 30.30 in 10.0 mi East 5.8 mph - N/A   Overcast
11:15 AM 24.8 °F - 19.4 °F 80% 30.30 in 10.0 mi Calm Calm - N/A   Overcast
11:35 AM 24.8 °F - 19.4 °F 80% 30.30 in 10.0 mi Calm Calm - N/A   Overcast
11:55 AM 26.6 °F 22.6 °F 19.4 °F 74% 30.29 in 10.0 mi South 3.5 mph - N/A   Overcast
12:15 PM 26.6 °F - 19.4 °F 74% 30.28 in 10.0 mi Calm Calm - N/A   Overcast
12:35 PM 26.6 °F - 19.4 °F 74% 30.27 in 10.0 mi Calm Calm - N/A   Overcast
12:55 PM 26.6 °F - 19.4 °F 74% 30.26 in 10.0 mi Calm Calm - N/A   Overcast
1:15 PM 28.4 °F - 19.4 °F 69% 30.25 in 10.0 mi Calm Calm - N/A   Overcast
1:35 PM 28.4 °F 23.3 °F 19.4 °F 69% 30.24 in 10.0 mi NW 4.6 mph - N/A   Overcast
1:55 PM 28.4 °F - 21.2 °F 74% 30.22 in 9.0 mi Calm Calm - N/A   Overcast
2:15 PM 28.4 °F - 21.2 °F 74% 30.21 in 8.0 mi Calm Calm - N/A   Overcast
2:35 PM 28.4 °F 24.6 °F 23.0 °F 80% 30.21 in 10.0 mi South 3.5 mph - N/A   Overcast
2:55 PM 30.2 °F 24.3 °F 23.0 °F 75% 30.19 in 10.0 mi SE 5.8 mph - N/A   Overcast
3:15 PM 30.2 °F 24.3 °F 23.0 °F 75% 30.19 in 10.0 mi ESE 5.8 mph - N/A   Overcast
3:35 PM 30.2 °F 24.3 °F 23.0 °F 75% 30.18 in 10.0 mi SSE 5.8 mph - N/A   Overcast
3:55 PM 30.2 °F 22.6 °F 24.8 °F 80% 30.17 in 10.0 mi SE 8.1 mph - N/A   Overcast
4:15 PM 32.0 °F 23.6 °F 24.8 °F 75% 30.17 in 10.0 mi South 10.4 mph - N/A   Overcast
4:35 PM 32.0 °F 23.6 °F 24.8 °F 75% 30.19 in 10.0 mi South 10.4 mph - N/A   Overcast
4:55 PM 32.0 °F 24.8 °F 24.8 °F 75% 30.18 in 10.0 mi SSE 8.1 mph - N/A   Overcast
5:15 PM 32.0 °F 25.6 °F 24.8 °F 75% 30.18 in 10.0 mi SSE 6.9 mph - N/A   Overcast
5:35 PM 32.0 °F 25.6 °F 24.8 °F 75% 30.19 in 10.0 mi SSE 6.9 mph - N/A   Overcast
5:55 PM 32.0 °F 26.4 °F 24.8 °F 75% 30.19 in 10.0 mi SSE 5.8 mph - N/A   Overcast
6:15 PM 32.0 °F 25.6 °F 24.8 °F 75% 30.19 in 10.0 mi South 6.9 mph - N/A   Overcast
6:35 PM 32.0 °F 25.6 °F 24.8 °F 75% 30.18 in 10.0 mi South 6.9 mph - N/A   Overcast
6:55 PM 32.0 °F 24.2 °F 26.6 °F 80% 30.18 in 10.0 mi SE 9.2 mph - N/A   Overcast
7:15 PM 32.0 °F 24.8 °F 26.6 °F 80% 30.17 in 10.0 mi SE 8.1 mph - N/A   Overcast
7:35 PM 32.0 °F 27.5 °F 26.6 °F 80% 30.18 in 10.0 mi South 4.6 mph - N/A   Overcast
7:55 PM 30.2 °F 25.4 °F 24.8 °F 80% 30.18 in 10.0 mi SSE 4.6 mph - N/A   Scattered Clouds
8:15 PM 28.4 °F 23.3 °F 24.8 °F 86% 30.18 in 10.0 mi SSE 4.6 mph - N/A   Scattered Clouds
8:35 PM 28.4 °F - 24.8 °F 86% 30.18 in 10.0 mi Calm Calm - N/A   Mostly Cloudy
8:55 PM 28.4 °F - 24.8 °F 86% 30.18 in 10.0 mi Calm Calm - N/A   Partly Cloudy
9:15 PM 26.6 °F 21.2 °F 24.8 °F 93% 30.19 in 10.0 mi SSW 4.6 mph - N/A   Scattered Clouds
9:35 PM 28.4 °F 22.2 °F 26.6 °F 93% 30.19 in 8.0 mi South 5.8 mph - N/A   Overcast
9:55 PM 30.2 °F 22.6 °F 28.4 °F 93% 30.17 in 7.0 mi SSE 8.1 mph - N/A   Overcast
10:15 PM 30.2 °F 21.9 °F 28.4 °F 93% 30.18 in 6.0 mi SSE 9.2 mph - N/A   Overcast
10:35 PM 32.0 °F 24.2 °F 28.4 °F 87% 30.19 in 5.0 mi SSE 9.2 mph - N/A   Overcast
10:55 PM 32.0 °F 24.8 °F 28.4 °F 87% 30.18 in 5.0 mi South 8.1 mph - N/A   Overcast
11:15 PM 32.0 °F 25.6 °F 30.2 °F 93% 30.19 in 5.0 mi South 6.9 mph - N/A   Overcast
11:35 PM 32.0 °F 24.8 °F 30.2 °F 93% 30.18 in 5.0 mi South 8.1 mph - N/A   Overcast
11:55 PM 32.0 °F 24.2 °F 30.2 °F 93% 30.17 in 4.0 mi South 9.2 mph - N/A   Overcast